This is the latest recevied weather packets stored in our database for station/object TA2LKM-11. If no packets are shown the sender has not sent any weather packets the latest 10 day(s).
| Time | Temp. | Humidity | Pressure | Rain* | Wind** | Luminosity | Snow |
|---|---|---|---|---|---|---|---|
| 1788221041 | 23.33° C | 60% | 1014.1 hPa | - | - | - | - |
| 1788220140 | 22.78° C | 61% | 1014.2 hPa | - | - | - | - |
| 1788219178 | 22.78° C | 62% | 1014.2 hPa | - | - | - | - |
| 1788219035 | 23.33° C | 61% | 1014.2 hPa | - | - | - | - |
| 1788218134 | 23.89° C | 59% | 1014.3 hPa | - | - | - | - |
| 1788217233 | 23.89° C | 61% | 1014.3 hPa | - | - | - | - |
| 1788216333 | 24.44° C | 60% | 1014.3 hPa | - | - | - | - |
| 1788215431 | 24.44° C | 59% | 1014.3 hPa | - | - | - | - |
| 1788214948 | 24.44° C | 60% | 1014.2 hPa | - | - | - | - |
| 1788214859 | 24.44° C | 60% | 1014.2 hPa | - | - | - | - |
| 1788214769 | 24.44° C | 60% | 1014.2 hPa | - | - | - | - |
| 1788213869 | 23.89° C | 61% | 1014.3 hPa | - | - | - | - |
| 1788212968 | 25° C | 58% | 1014.4 hPa | - | - | - | - |
| 1788212067 | 25.56° C | 57% | 1014.3 hPa | - | - | - | - |
| 1788211166 | 25.56° C | 56% | 1014.3 hPa | - | - | - | - |
| 1788211071 | 25.56° C | 56% | 1014.2 hPa | - | - | - | - |
| 1788211036 | 25.56° C | 56% | 1014.3 hPa | - | - | - | - |
| 1788210138 | 26.11° C | 55% | 1014.3 hPa | - | - | - | - |
| 1788209749 | 26.11° C | 55% | 1014.2 hPa | - | - | - | - |
| 1788187204 | 33.33° C | 100% | 764.9 hPa | - | - | - | - |
| 1788183598 | 33.33° C | 100% | 764.9 hPa | - | - | - | - |
| 1788182698 | 33.33° C | 100% | 764.9 hPa | - | - | - | - |
| 1788181891 | 33.33° C | 100% | 764.9 hPa | - | - | - | - |
| 1788180896 | 33.33° C | 100% | 764.9 hPa | - | - | - | - |
| 1788179996 | 33.33° C | 100% | 764.9 hPa | - | - | - | - |
* Rain since midnight (hover to see other rain measurements)
** Current wind speed in m/s (hover to see current wind gust speed)